Station Historical Data
Daily Summary for January 27, 2012 Units:  English    Metric   Both
« Previous Day
Next Day »
Daily Weekly Monthly Yearly Custom
  High: Low: Average:
Temperature: 53.6 °F 39.9 °F 44.6 °F
Dew Point: 43.0 °F 36.5 °F 38.8 °F
Humidity: 96% 54% 81%
Wind Speed: 13.0mph 0.0mph 4mph
Wind Gust: 18.0mph - -
Wind- - WSW
Pressure: 30.06 in 29.74 in -
Precipitation: 0.00 in    
Historical Graphs
 
 
Tabular Data for January 27, 2012
Time Temperature Dew Point Pressure Wind Wind Speed Wind Gust Humidity Rainfall Rate (Hourly) Conditions
00:00 44.1 °F 43.0 °F 29.74 in WNW 8.0 mph 18.0 mph 96% 0.00 in
00:01 44.1 °F 43.0 °F 29.74 in WNW 8.0 mph 18.0 mph 96% 0.00 in
00:06 43.9 °F 42.8 °F 29.74 in WNW 6.0 mph 16.0 mph 96% 0.00 in
00:11 43.9 °F 42.8 °F 29.74 in West 11.0 mph 15.0 mph 96% 0.00 in
00:16 43.8 °F 42.7 °F 29.75 in WNW 7.0 mph 18.0 mph 96% 0.00 in
00:21 43.6 °F 42.3 °F 29.75 in WNW 11.0 mph 15.0 mph 95% 0.00 in
00:26 43.5 °F 42.2 °F 29.75 in West 8.0 mph 12.0 mph 95% 0.00 in
00:31 43.4 °F 42.3 °F 29.75 in West 7.0 mph 12.0 mph 96% 0.00 in
00:36 43.3 °F 42.2 °F 29.75 in WNW 6.0 mph 11.0 mph 96% 0.00 in
00:42 43.2 °F 42.1 °F 29.75 in NW 5.0 mph 15.0 mph 96% 0.00 in
00:47 43.1 °F 42.0 °F 29.75 in WNW 7.0 mph 11.0 mph 96% 0.00 in
00:52 43.1 °F 42.0 °F 29.76 in West 7.0 mph 13.0 mph 96% 0.00 in
00:57 43.0 °F 41.7 °F 29.75 in WNW 6.0 mph 12.0 mph 95% 0.06 in
01:02 43.0 °F 41.7 °F 29.75 in West 6.0 mph 6.0 mph 95% 0.06 in
01:07 42.9 °F 41.6 °F 29.75 in WNW 7.0 mph 12.0 mph 95% 0.05 in
01:12 42.9 °F 41.6 °F 29.76 in NW 4.0 mph 9.0 mph 95% 0.04 in
01:17 42.7 °F 41.4 °F 29.76 in NW 4.0 mph 10.0 mph 95% 0.00 in
01:22 42.6 °F 41.3 °F 29.76 in WNW 5.0 mph 8.0 mph 95% 0.00 in
01:27 42.5 °F 41.2 °F 29.76 in WNW 5.0 mph 10.0 mph 95% 0.00 in
01:32 42.4 °F 41.1 °F 29.76 in West 8.0 mph 10.0 mph 95% 0.00 in
01:37 42.3 °F 41.0 °F 29.75 in West 5.0 mph 12.0 mph 95% 0.00 in
01:42 42.2 °F 41.1 °F 29.76 in West 4.0 mph 7.0 mph 96% 0.00 in
01:47 42.2 °F 41.1 °F 29.76 in West 4.0 mph 7.0 mph 96% 0.00 in
01:52 42.1 °F 41.0 °F 29.76 in West 3.0 mph 8.0 mph 96% 0.00 in
01:57 42.1 °F 41.0 °F 29.77 in West 5.0 mph 8.0 mph 96% 0.00 in
02:02 42.1 °F 41.0 °F 29.77 in WNW 5.0 mph 7.0 mph 96% 0.00 in
02:07 42.1 °F 41.0 °F 29.77 in WNW 6.0 mph 8.0 mph 96% 0.00 in
02:12 42.0 °F 40.9 °F 29.78 in WNW 7.0 mph 10.0 mph 96% 0.00 in
02:17 42.0 °F 40.9 °F 29.78 in WNW 7.0 mph 7.0 mph 96% 0.00 in
02:22 42.0 °F 40.9 °F 29.78 in West 5.0 mph 9.0 mph 96% 0.00 in
02:28 42.0 °F 40.9 °F 29.79 in West 9.0 mph 10.0 mph 96% 0.00 in
02:33 41.9 °F 40.6 °F 29.79 in West 8.0 mph 11.0 mph 95% 0.00 in
02:38 41.9 °F 40.6 °F 29.79 in WNW 12.0 mph 14.0 mph 95% 0.00 in
02:43 41.9 °F 40.6 °F 29.79 in WNW 11.0 mph 14.0 mph 95% 0.00 in
02:48 41.8 °F 40.5 °F 29.79 in WNW 9.0 mph 11.0 mph 95% 0.00 in
02:53 41.8 °F 40.5 °F 29.79 in West 11.0 mph 11.0 mph 95% 0.00 in
02:58 41.8 °F 40.5 °F 29.80 in WNW 5.0 mph 14.0 mph 95% 0.00 in
03:03 41.7 °F 40.4 °F 29.80 in West 5.0 mph 8.0 mph 95% 0.00 in
03:08 41.7 °F 40.4 °F 29.80 in WNW 8.0 mph 13.0 mph 95% 0.00 in
03:13 41.7 °F 40.4 °F 29.81 in West 5.0 mph 14.0 mph 95% 0.00 in
03:18 41.6 °F 40.3 °F 29.81 in WNW 12.0 mph 14.0 mph 95% 0.00 in
03:23 41.6 °F 40.3 °F 29.81 in WNW 6.0 mph 10.0 mph 95% 0.00 in
03:28 41.5 °F 40.2 °F 29.82 in WNW 13.0 mph 17.0 mph 95% 0.00 in
03:33 41.5 °F 39.9 °F 29.82 in WNW 12.0 mph 12.0 mph 94% 0.00 in
03:38 41.4 °F 39.8 °F 29.82 in West 8.0 mph 12.0 mph 94% 0.00 in
03:43 41.4 °F 39.8 °F 29.82 in WNW 10.0 mph 13.0 mph 94% 0.00 in
03:48 41.3 °F 39.7 °F 29.83 in WNW 6.0 mph 11.0 mph 94% 0.00 in
03:53 41.3 °F 39.7 °F 29.83 in West 6.0 mph 10.0 mph 94% 0.00 in
03:58 41.2 °F 39.3 °F 29.83 in NW 7.0 mph 12.0 mph 93% 0.00 in
04:03 41.2 °F 39.3 °F 29.83 in WNW 4.0 mph 11.0 mph 93% 0.00 in
04:08 41.1 °F 39.2 °F 29.83 in WNW 6.0 mph 11.0 mph 93% 0.00 in
04:13 41.1 °F 39.2 °F 29.83 in West 8.0 mph 12.0 mph 93% 0.00 in
04:18 41.1 °F 39.2 °F 29.84 in WNW 8.0 mph 12.0 mph 93% 0.00 in
04:23 41.1 °F 39.2 °F 29.84 in WNW 10.0 mph 10.0 mph 93% 0.00 in
04:28 41.0 °F 38.9 °F 29.84 in WNW 4.0 mph 8.0 mph 92% 0.00 in
04:33 40.9 °F 38.8 °F 29.84 in WNW 7.0 mph 10.0 mph 92% 0.00 in
04:38 40.7 °F 38.6 °F 29.84 in WNW 11.0 mph 11.0 mph 92% 0.00 in
04:43 40.7 °F 38.6 °F 29.84 in WNW 4.0 mph 9.0 mph 92% 0.00 in
04:48 40.6 °F 38.5 °F 29.85 in WNW 9.0 mph 9.0 mph 92% 0.00 in
04:53 40.6 °F 38.5 °F 29.85 in West 9.0 mph 9.0 mph 92% 0.00 in
04:58 40.7 °F 38.3 °F 29.85 in WNW 6.0 mph 11.0 mph 91% 0.00 in
05:03 40.6 °F 38.5 °F 29.85 in West 3.0 mph 10.0 mph 92% 0.00 in
05:08 40.5 °F 38.1 °F 29.86 in WNW 6.0 mph 10.0 mph 91% 0.00 in
05:13 40.5 °F 38.4 °F 29.86 in WNW 7.0 mph 11.0 mph 92% 0.00 in
05:18 40.5 °F 38.1 °F 29.87 in WNW 7.0 mph 11.0 mph 91% 0.00 in
05:23 40.5 °F 38.1 °F 29.87 in West 8.0 mph 10.0 mph 91% 0.00 in
05:28 40.5 °F 38.1 °F 29.87 in NNW 7.0 mph 8.0 mph 91% 0.00 in
05:33 40.4 °F 38.0 °F 29.87 in West 7.0 mph 15.0 mph 91% 0.00 in
05:38 40.4 °F 37.7 °F 29.88 in WNW 8.0 mph 13.0 mph 90% 0.00 in
05:43 40.4 °F 37.7 °F 29.88 in WNW 4.0 mph 11.0 mph 90% 0.00 in
05:48 40.4 °F 37.7 °F 29.89 in WNW 7.0 mph 10.0 mph 90% 0.00 in
05:54 40.3 °F 37.6 °F 29.89 in WNW 7.0 mph 11.0 mph 90% 0.00 in
05:59 40.3 °F 37.6 °F 29.89 in NW 8.0 mph 8.0 mph 90% 0.00 in
06:04 40.3 °F 37.6 °F 29.89 in NW 3.0 mph 10.0 mph 90% 0.00 in
06:09 40.3 °F 37.6 °F 29.90 in WNW 7.0 mph 8.0 mph 90% 0.00 in
06:14 40.3 °F 37.9 °F 29.90 in NW 3.0 mph 8.0 mph 91% 0.00 in
06:19 40.3 °F 38.2 °F 29.91 in NNW 4.0 mph 5.0 mph 92% 0.00 in
06:24 40.3 °F 37.9 °F 29.91 in WNW 5.0 mph 8.0 mph 91% 0.00 in
06:29 40.4 °F 38.0 °F 29.90 in WNW 4.0 mph 11.0 mph 91% 0.00 in
06:34 40.3 °F 37.9 °F 29.90 in WNW 5.0 mph 9.0 mph 91% 0.00 in
06:39 40.3 °F 37.9 °F 29.91 in NW 4.0 mph 7.0 mph 91% 0.00 in
06:44 40.3 °F 37.9 °F 29.91 in NW 7.0 mph 8.0 mph 91% 0.00 in
06:49 40.4 °F 37.7 °F 29.92 in WNW 4.0 mph 8.0 mph 90% 0.00 in
06:54 40.4 °F 37.7 °F 29.93 in WNW 4.0 mph 8.0 mph 90% 0.00 in
06:59 40.4 °F 38.0 °F 29.93 in WNW 6.0 mph 7.0 mph 91% 0.00 in
07:04 40.4 °F 38.0 °F 29.94 in West 12.0 mph 12.0 mph 91% 0.00 in
07:09 40.4 °F 37.7 °F 29.94 in WNW 4.0 mph 11.0 mph 90% 0.00 in
07:14 40.5 °F 37.8 °F 29.94 in WNW 6.0 mph 8.0 mph 90% 0.00 in
07:19 40.4 °F 37.7 °F 29.94 in WNW 3.0 mph 6.0 mph 90% 0.00 in
07:24 40.4 °F 37.7 °F 29.95 in West 2.0 mph 7.0 mph 90% 0.00 in
07:29 40.4 °F 37.7 °F 29.94 in NW 2.0 mph 5.0 mph 90% 0.00 in
07:34 40.4 °F 37.7 °F 29.94 in North 5.0 mph 6.0 mph 90% 0.00 in
07:39 40.3 °F 37.6 °F 29.93 in NW 5.0 mph 6.0 mph 90% 0.00 in
07:44 40.1 °F 37.4 °F 29.93 in North 4.0 mph 6.0 mph 90% 0.00 in
07:49 39.9 °F 37.5 °F 29.93 in NW 5.0 mph 6.0 mph 91% 0.00 in
07:54 40.0 °F 37.3 °F 29.94 in NW 4.0 mph 7.0 mph 90% 0.00 in
07:59 39.9 °F 37.5 °F 29.95 in WNW 3.0 mph 4.0 mph 91% 0.00 in
08:04 39.9 °F 37.5 °F 29.95 in WNW 2.0 mph 4.0 mph 91% 0.00 in
08:09 39.9 °F 37.5 °F 29.95 in WNW 3.0 mph 5.0 mph 91% 0.00 in
08:14 39.9 °F 37.5 °F 29.95 in WNW 2.0 mph 5.0 mph 91% 0.00 in
08:19 39.9 °F 37.5 °F 29.95 in WNW 2.0 mph 2.0 mph 91% 0.00 in
08:24 39.9 °F 37.5 °F 29.95 in WNW 3.0 mph 3.0 mph 91% 0.00 in
08:29 40.0 °F 37.6 °F 29.95 in NW 1.0 mph 3.0 mph 91% 0.00 in
08:34 40.1 °F 37.7 °F 29.95 in WNW 2.0 mph 4.0 mph 91% 0.00 in
08:40 40.2 °F 37.8 °F 29.95 in NW 4.0 mph 7.0 mph 91% 0.00 in
08:45 40.4 °F 38.0 °F 29.95 in NW 7.0 mph 7.0 mph 91% 0.00 in
08:50 40.4 °F 38.0 °F 29.95 in WNW 4.0 mph 5.0 mph 91% 0.00 in
08:55 40.4 °F 37.7 °F 29.96 in NW 5.0 mph 7.0 mph 90% 0.00 in
09:00 40.6 °F 38.2 °F 29.96 in WNW 3.0 mph 5.0 mph 91% 0.00 in
09:05 40.7 °F 38.3 °F 29.97 in West 3.0 mph 6.0 mph 91% 0.00 in
09:10 40.9 °F 38.2 °F 29.97 in WNW 4.0 mph 6.0 mph 90% 0.00 in
09:15 40.9 °F 38.2 °F 29.98 in WNW 3.0 mph 6.0 mph 90% 0.00 in
09:20 40.9 °F 37.9 °F 29.98 in WNW 5.0 mph 9.0 mph 89% 0.00 in
09:25 40.9 °F 37.9 °F 29.98 in WNW 4.0 mph 7.0 mph 89% 0.00 in
09:30 41.0 °F 38.0 °F 29.98 in NNW 6.0 mph 7.0 mph 89% 0.00 in
09:35 41.0 °F 37.7 °F 29.98 in North 5.0 mph 10.0 mph 88% 0.00 in
09:40 41.0 °F 38.0 °F 29.98 in NW 5.0 mph 9.0 mph 89% 0.00 in
09:45 41.1 °F 37.5 °F 29.98 in WNW 5.0 mph 6.0 mph 87% 0.00 in
09:50 41.2 °F 37.9 °F 29.98 in NNW 5.0 mph 9.0 mph 88% 0.00 in
09:55 41.7 °F 38.4 °F 29.98 in NW 8.0 mph 8.0 mph 88% 0.00 in
10:00 42.4 °F 39.1 °F 29.99 in NNW 5.0 mph 6.0 mph 88% 0.00 in
10:05 42.5 °F 38.6 °F 29.99 in West 4.0 mph 6.0 mph 86% 0.00 in
10:10 42.2 °F 38.0 °F 29.99 in NW 5.0 mph 8.0 mph 85% 0.00 in
10:15 42.2 °F 38.6 °F 29.99 in WNW 4.0 mph 7.0 mph 87% 0.00 in
10:20 42.6 °F 39.0 °F 29.99 in WNW 2.0 mph 9.0 mph 87% 0.00 in
10:25 42.9 °F 38.7 °F 30.00 in WNW 4.0 mph 8.0 mph 85% 0.00 in
10:30 42.9 °F 38.7 °F 30.01 in West 7.0 mph 8.0 mph 85% 0.00 in
10:35 43.0 °F 39.1 °F 30.01 in WNW 7.0 mph 8.0 mph 86% 0.00 in
10:40 43.0 °F 38.8 °F 30.02 in West 5.0 mph 8.0 mph 85% 0.00 in
10:45 42.6 °F 39.0 °F 30.01 in WNW 3.0 mph 7.0 mph 87% 0.00 in
10:50 42.9 °F 38.7 °F 30.02 in West 4.0 mph 8.0 mph 85% 0.00 in
10:55 43.3 °F 38.8 °F 30.02 in West 4.0 mph 6.0 mph 84% 0.00 in
11:00 44.0 °F 39.2 °F 30.02 in WSW 9.0 mph 10.0 mph 83% 0.00 in
11:05 44.5 °F 38.7 °F 30.02 in SW 6.0 mph 9.0 mph 80% 0.00 in
11:10 44.8 °F 39.0 °F 30.02 in WNW 4.0 mph 7.0 mph 80% 0.00 in
11:15 44.5 °F 38.7 °F 30.02 in NW 7.0 mph 9.0 mph 80% 0.00 in
11:20 44.9 °F 39.4 °F 30.03 in WNW 11.0 mph 12.0 mph 81% 0.00 in
11:25 44.8 °F 39.0 °F 30.03 in WNW 3.0 mph 8.0 mph 80% 0.00 in
11:31 45.2 °F 39.7 °F 30.03 in West 3.0 mph 5.0 mph 81% 0.00 in
11:36 44.9 °F 39.4 °F 30.03 in WNW 3.0 mph 6.0 mph 81% 0.00 in
11:41 45.4 °F 39.9 °F 30.02 in West 3.0 mph 7.0 mph 81% 0.00 in
11:46 45.1 °F 39.0 °F 30.02 in WSW 4.0 mph 5.0 mph 79% 0.00 in
11:51 45.8 °F 41.2 °F 30.02 in WSW 8.0 mph 10.0 mph 84% 0.00 in
11:56 46.2 °F 40.1 °F 30.02 in WNW 3.0 mph 7.0 mph 79% 0.00 in
12:01 46.0 °F 39.9 °F 30.02 in Calm   6.0 mph 79% 0.00 in
12:06 46.4 °F 40.2 °F 30.02 in NW 6.0 mph 6.0 mph 79% 0.00 in
12:11 46.4 °F 39.3 °F 30.02 in WNW 4.0 mph 8.0 mph 76% 0.00 in
12:16 45.8 °F 39.3 °F 30.02 in West 2.0 mph 6.0 mph 78% 0.00 in
12:21 46.4 °F 40.9 °F 30.02 in NW 3.0 mph 5.0 mph 81% 0.00 in
12:26 46.9 °F 40.1 °F 30.02 in WNW 5.0 mph 7.0 mph 77% 0.00 in
12:31 46.3 °F 38.8 °F 30.02 in WNW 2.0 mph 7.0 mph 75% 0.00 in
12:37 47.0 °F 40.5 °F 30.02 in WSW 7.0 mph 7.0 mph 78% 0.00 in
12:42 47.2 °F 40.0 °F 30.01 in West 3.0 mph 6.0 mph 76% 0.00 in
12:47 47.4 °F 39.9 °F 30.02 in SW 3.0 mph 6.0 mph 75% 0.00 in
12:52 48.0 °F 40.8 °F 30.02 in West 3.0 mph 10.0 mph 76% 0.00 in
12:57 48.1 °F 39.5 °F 30.02 in West 4.0 mph 8.0 mph 72% 0.00 in
13:02 48.2 °F 40.7 °F 30.02 in SSW 7.0 mph 8.0 mph 75% 0.00 in
13:07 49.1 °F 41.5 °F 30.02 in WNW 5.0 mph 8.0 mph 75% 0.00 in
13:12 49.0 °F 40.4 °F 30.02 in WSW 5.0 mph 9.0 mph 72% 0.00 in
13:17 49.2 °F 40.6 °F 30.02 in SSW 4.0 mph 9.0 mph 72% 0.00 in
13:22 49.3 °F 40.7 °F 30.02 in WSW 7.0 mph 10.0 mph 72% 0.00 in
13:27 50.0 °F 42.0 °F 30.02 in WSW 2.0 mph 7.0 mph 74% 0.00 in
13:32 49.8 °F 41.2 °F 30.02 in West 5.0 mph 8.0 mph 72% 0.00 in
13:37 50.1 °F 40.3 °F 30.01 in WSW 3.0 mph 8.0 mph 69% 0.00 in
13:42 50.2 °F 41.2 °F 30.01 in WNW 5.0 mph 7.0 mph 71% 0.00 in
13:47 49.8 °F 39.3 °F 30.01 in WNW 4.0 mph 9.0 mph 67% 0.00 in
13:52 50.1 °F 40.3 °F 30.01 in WSW 4.0 mph 5.0 mph 69% 0.00 in
13:57 49.9 °F 39.8 °F 30.01 in SW 2.0 mph 5.0 mph 68% 0.00 in
14:02 50.1 °F 40.7 °F 30.01 in SSW 7.0 mph 8.0 mph 70% 0.00 in
14:07 50.1 °F 40.0 °F 30.01 in SW 7.0 mph 11.0 mph 68% 0.00 in
14:12 50.4 °F 41.0 °F 30.00 in West 4.0 mph 6.0 mph 70% 0.00 in
14:17 50.7 °F 40.5 °F 30.00 in WSW 6.0 mph 8.0 mph 68% 0.00 in
14:22 50.9 °F 40.3 °F 30.00 in WNW 3.0 mph 7.0 mph 67% 0.00 in
14:27 51.0 °F 38.9 °F 30.00 in WNW 2.0 mph 10.0 mph 63% 0.00 in
14:32 50.6 °F 40.4 °F 30.01 in West 1.0 mph 5.0 mph 68% 0.00 in
14:37 51.0 °F 39.3 °F 30.01 in West 5.0 mph 8.0 mph 64% 0.00 in
14:42 51.0 °F 38.9 °F 30.01 in WNW 5.0 mph 7.0 mph 63% 0.00 in
14:47 51.3 °F 40.3 °F 30.01 in WNW 5.0 mph 5.0 mph 66% 0.00 in
14:52 51.6 °F 39.8 °F 30.01 in WNW 4.0 mph 6.0 mph 64% 0.00 in
14:57 51.4 °F 37.6 °F 30.01 in NW 3.0 mph 8.0 mph 59% 0.00 in
15:02 51.8 °F 38.4 °F 30.01 in WSW 2.0 mph 7.0 mph 60% 0.00 in
15:07 51.6 °F 39.0 °F 30.01 in SW 3.0 mph 6.0 mph 62% 0.00 in
15:12 51.9 °F 38.5 °F 30.01 in WNW 4.0 mph 4.0 mph 60% 0.00 in
15:17 52.1 °F 38.2 °F 30.01 in West 1.0 mph 5.0 mph 59% 0.00 in
15:22 52.5 °F 39.5 °F 30.01 in WNW 3.0 mph 5.0 mph 61% 0.00 in
15:27 52.4 °F 38.1 °F 30.01 in WNW 2.0 mph 6.0 mph 58% 0.00 in
15:32 52.3 °F 38.8 °F 30.01 in SW 3.0 mph 5.0 mph 60% 0.00 in
15:37 52.4 °F 39.8 °F 30.01 in ESE 3.0 mph 4.0 mph 62% 0.00 in
15:42 52.5 °F 39.9 °F 30.01 in SSE 4.0 mph 5.0 mph 62% 0.00 in
15:47 52.8 °F 40.2 °F 30.01 in SW 3.0 mph 5.0 mph 62% 0.00 in
15:53 52.5 °F 39.0 °F 30.01 in SW 2.0 mph 5.0 mph 60% 0.00 in
15:58 52.5 °F 39.0 °F 30.01 in NW 2.0 mph 5.0 mph 60% 0.00 in
16:02 52.6 °F 39.1 °F 30.01 in SW 4.0 mph 6.0 mph 60% 0.00 in
16:08 52.6 °F 39.5 °F 30.01 in SW 3.0 mph 4.0 mph 61% 0.00 in
16:12 53.0 °F 39.1 °F 30.01 in SSW 1.0 mph 3.0 mph 59% 0.00 in
16:18 53.6 °F 39.2 °F 30.01 in WSW 5.0 mph 5.0 mph 58% 0.00 in
16:23 53.4 °F 37.7 °F 30.01 in SSE 2.0 mph 6.0 mph 55% 0.00 in
16:28 53.6 °F 38.3 °F 30.01 in WNW 4.0 mph 4.0 mph 56% 0.00 in
16:33 53.5 °F 38.2 °F 30.02 in WNW 3.0 mph 3.0 mph 56% 0.00 in
16:38 53.5 °F 38.2 °F 30.02 in SW 4.0 mph 5.0 mph 56% 0.00 in
16:43 53.0 °F 36.8 °F 30.03 in WSW 3.0 mph 6.0 mph 54% 0.00 in
16:48 53.0 °F 36.8 °F 30.03 in West 1.0 mph 4.0 mph 54% 0.00 in
16:53 53.3 °F 38.0 °F 30.03 in West 6.0 mph 7.0 mph 56% 0.00 in
16:58 53.0 °F 36.8 °F 30.03 in WNW 5.0 mph 5.0 mph 54% 0.00 in
17:03 52.8 °F 37.1 °F 30.03 in WNW 4.0 mph 5.0 mph 55% 0.00 in
17:08 52.8 °F 37.5 °F 30.03 in WSW 3.0 mph 4.0 mph 56% 0.00 in
17:13 52.8 °F 37.5 °F 30.03 in WSW 4.0 mph 5.0 mph 56% 0.00 in
17:18 52.7 °F 36.5 °F 30.03 in West 3.0 mph 6.0 mph 54% 0.00 in
17:23 52.2 °F 37.0 °F 30.04 in West 3.0 mph 4.0 mph 56% 0.00 in
17:28 51.6 °F 37.3 °F 30.04 in WSW 2.0 mph 4.0 mph 58% 0.00 in
17:33 51.1 °F 37.7 °F 30.04 in West 1.0 mph 2.0 mph 60% 0.00 in
17:38 50.7 °F 38.6 °F 30.03 in SW 2.0 mph 3.0 mph 63% 0.00 in
17:43 50.5 °F 38.0 °F 30.03 in WSW 3.0 mph 5.0 mph 62% 0.00 in
17:48 50.4 °F 38.3 °F 30.04 in WSW 1.0 mph 3.0 mph 63% 0.00 in
17:53 50.3 °F 37.8 °F 30.03 in SW 1.0 mph 2.0 mph 62% 0.00 in
17:58 50.5 °F 37.6 °F 30.03 in WSW 1.0 mph 2.0 mph 61% 0.00 in
18:03 50.6 °F 38.1 °F 30.03 in Calm   2.0 mph 62% 0.00 in
18:08 50.4 °F 38.3 °F 30.03 in Calm     63% 0.00 in
18:13 49.8 °F 37.7 °F 30.03 in SSW 1.0 mph 1.0 mph 63% 0.00 in
18:18 49.2 °F 38.0 °F 30.03 in Calm     65% 0.00 in
18:23 48.6 °F 37.4 °F 30.03 in Calm     65% 0.00 in
18:28 48.2 °F 37.4 °F 30.03 in Calm     66% 0.00 in
18:33 47.9 °F 37.1 °F 30.03 in Calm     66% 0.00 in
18:38 47.7 °F 37.3 °F 30.03 in Calm     67% 0.00 in
18:43 47.3 °F 37.3 °F 30.03 in SSE 1.0 mph 1.0 mph 68% 0.00 in
18:48 46.9 °F 37.6 °F 30.03 in Calm   1.0 mph 70% 0.00 in
18:53 46.1 °F 37.6 °F 30.03 in Calm     72% 0.00 in
18:58 45.9 °F 37.4 °F 30.03 in SE 1.0 mph 1.0 mph 72% 0.00 in
19:03 46.3 °F 37.4 °F 30.03 in Calm   1.0 mph 71% 0.00 in
19:08 46.1 °F 37.6 °F 30.03 in Calm   1.0 mph 72% 0.00 in
19:13 45.9 °F 37.4 °F 30.04 in Calm   1.0 mph 72% 0.00 in
19:19 45.9 °F 37.4 °F 30.04 in SE 1.0 mph 1.0 mph 72% 0.00 in
19:24 45.8 °F 37.3 °F 30.04 in SE 1.0 mph 1.0 mph 72% 0.00 in
19:29 45.6 °F 37.5 °F 30.04 in Calm   1.0 mph 73% 0.00 in
19:34 45.4 °F 37.6 °F 30.04 in SSW 1.0 mph 1.0 mph 74% 0.00 in
19:39 45.4 °F 37.6 °F 30.05 in South 1.0 mph 2.0 mph 74% 0.00 in
19:44 45.5 °F 37.7 °F 30.05 in South 1.0 mph 1.0 mph 74% 0.00 in
19:49 45.3 °F 37.5 °F 30.05 in Calm   1.0 mph 74% 0.00 in
19:54 45.2 °F 37.8 °F 30.04 in SSE 1.0 mph 1.0 mph 75% 0.00 in
19:59 45.4 °F 38.0 °F 30.04 in ESE 1.0 mph 1.0 mph 75% 0.00 in
20:04 45.6 °F 38.2 °F 30.04 in ESE 1.0 mph 1.0 mph 75% 0.00 in
20:09 45.5 °F 38.0 °F 30.05 in ESE 1.0 mph 1.0 mph 75% 0.00 in
20:14 45.4 °F 38.0 °F 30.05 in Calm   1.0 mph 75% 0.00 in
20:19 45.0 °F 37.6 °F 30.05 in Calm     75% 0.00 in
20:24 44.4 °F 37.3 °F 30.05 in Calm     76% 0.00 in
20:29 43.9 °F 37.5 °F 30.05 in Calm     78% 0.00 in
20:34 43.9 °F 37.8 °F 30.04 in Calm     79% 0.00 in
20:39 44.1 °F 38.0 °F 30.05 in ESE 1.0 mph 1.0 mph 79% 0.00 in
20:44 44.4 °F 38.0 °F 30.04 in ESE 1.0 mph 1.0 mph 78% 0.00 in
20:49 44.8 °F 38.0 °F 30.05 in ESE 2.0 mph 2.0 mph 77% 0.00 in
20:54 44.9 °F 38.1 °F 30.04 in East 2.0 mph 2.0 mph 77% 0.00 in
20:59 44.7 °F 37.9 °F 30.04 in East 1.0 mph 1.0 mph 77% 0.00 in
21:04 44.5 °F 38.1 °F 30.04 in East 2.0 mph 2.0 mph 78% 0.00 in
21:09 44.5 °F 38.1 °F 30.03 in East 3.0 mph 3.0 mph 78% 0.00 in
21:14 44.8 °F 38.4 °F 30.03 in East 3.0 mph 3.0 mph 78% 0.00 in
21:19 44.8 °F 38.0 °F 30.03 in East 2.0 mph 3.0 mph 77% 0.00 in
21:24 44.5 °F 38.1 °F 30.03 in East 2.0 mph 2.0 mph 78% 0.00 in
21:29 43.6 °F 37.5 °F 30.03 in Calm   1.0 mph 79% 0.00 in
21:34 42.7 °F 37.0 °F 30.03 in Calm     80% 0.00 in
21:39 42.0 °F 36.9 °F 30.03 in East 1.0 mph 1.0 mph 82% 0.00 in
21:44 41.4 °F 36.9 °F 30.03 in Calm     84% 0.00 in
21:49 40.8 °F 36.7 °F 30.03 in Calm     85% 0.00 in
21:54 40.6 °F 36.8 °F 30.02 in East 2.0 mph 2.0 mph 86% 0.00 in
21:59 41.1 °F 37.5 °F 30.03 in East 2.0 mph 3.0 mph 87% 0.00 in
22:04 41.5 °F 37.6 °F 30.02 in ESE 4.0 mph 4.0 mph 86% 0.00 in
22:09 41.5 °F 37.3 °F 30.02 in East 2.0 mph 3.0 mph 85% 0.00 in
22:14 41.4 °F 37.2 °F 30.02 in Calm   2.0 mph 85% 0.00 in
22:19 40.9 °F 37.0 °F 30.03 in East 3.0 mph 3.0 mph 86% 0.00 in
22:24 41.5 °F 37.3 °F 30.03 in Calm   2.0 mph 85% 0.00 in
22:29 41.2 °F 37.0 °F 30.03 in Calm   1.0 mph 85% 0.00 in
22:34 41.3 °F 37.7 °F 30.03 in ESE 3.0 mph 4.0 mph 87% 0.00 in
22:39 41.9 °F 37.7 °F 30.03 in ESE 3.0 mph 4.0 mph 85% 0.00 in
22:45 42.1 °F 37.6 °F 30.03 in ESE 3.0 mph 3.0 mph 84% 0.00 in
22:50 42.2 °F 37.7 °F 30.03 in ESE 2.0 mph 3.0 mph 84% 0.00 in
22:55 41.5 °F 36.7 °F 30.03 in Calm   1.0 mph 83% 0.00 in
23:00 40.8 °F 36.7 °F 30.04 in SE 2.0 mph 2.0 mph 85% 0.00 in
23:05 41.6 °F 37.4 °F 30.03 in ESE 4.0 mph 5.0 mph 85% 0.00 in
23:10 42.2 °F 37.4 °F 30.03 in SE 3.0 mph 5.0 mph 83% 0.00 in
23:15 41.9 °F 37.1 °F 30.03 in ESE 2.0 mph 3.0 mph 83% 0.00 in
23:20 42.0 °F 37.2 °F 30.04 in SE 3.0 mph 4.0 mph 83% 0.00 in
23:25 42.0 °F 37.5 °F 30.04 in SE 1.0 mph 4.0 mph 84% 0.00 in
23:30 41.9 °F 37.4 °F 30.05 in SSE 2.0 mph 3.0 mph 84% 0.00 in
23:35 41.8 °F 37.3 °F 30.05 in SE 2.0 mph 3.0 mph 84% 0.00 in
23:40 41.7 °F 37.2 °F 30.05 in SSE 1.0 mph 2.0 mph 84% 0.00 in
23:45 41.5 °F 37.3 °F 30.05 in SSE 1.0 mph 1.0 mph 85% 0.00 in
23:50 41.3 °F 37.1 °F 30.06 in SSE 1.0 mph 2.0 mph 85% 0.00 in
23:55 41.1 °F 37.2 °F 30.06 in SE 1.0 mph 2.0 mph 86% 0.00 in
Compliments of Weather Underground